Quillayute, WA
on Sunday, November 25, 2012

Sunday
Previous Day Next Day
Daily Summary
 ActualAverageRecord
Temperature
Mean Temperature °F 42°F  
Max Temperature 49°F 48°F 57°F (2013)
Min Temperature 31°F 37°F 22°F (1993)
Degree Days
Heating Degree Days 25 23  
Month to date heating degree days 509  
Since 1 July heating degree days 1599  
Cooling Degree Days 0 0  
Month to date cooling degree days 0  
Year to date cooling degree days 19  
Growing Degree Days0 (Base °F )  
Moisture
Dew Point 35°F   
Average Humidity 92    
Maximum Humidity 100    
Minimum Humidity 66    
Precipitation
Precipitation T in 0.53 in 2.62 in (1977)
Month to date precipitation 12.91  
Year to date precipitation 83.94  
Wind
Wind Speed 3 mph   
Max Wind Speed 8 mph   
Max Gust Speed 10 mph   
Visibility 5 miles   
Events Rain   

Key: T is trace of precipitation, MM is missing value
Source: NWS Daily Summary
Time(PST)TemperatureDew PointHumidity Pressure Visibility Wind DirectionWind SpeedGust SpeedPrecipitationEvents Conditions
12:53 AM 33.1°F 33.1°F 100% 30.29 in 7.0 miles East 3.5 mph - N/A   Clear
1:53 AM 32.0°F 32.0°F 100% 30.30 in 6.0 miles East 4.6 mph - N/A   Mostly Cloudy
2:35 AM 35.6°F 33.8°F 93% 30.30 in 6.0 miles East 5.8 mph - 0.00 in Rain Light Rain
2:42 AM 35.6°F 33.8°F 93% 30.30 in 7.0 miles East 5.8 mph - 0.00 in   Overcast
2:53 AM 35.1°F 34.0°F 96% 30.31 in 7.0 miles East 4.6 mph - 0.00 in   Overcast
3:53 AM 33.1°F 32.0°F 96% 30.30 in 4.0 miles Calm Calm - N/A   Clear
4:27 AM 33.8°F 33.8°F 100% 30.29 in 1.8 miles Calm Calm - N/A   Partly Cloudy
4:37 AM 33.8°F 32.0°F 93% 30.29 in 3.0 miles East 3.5 mph - N/A   Mostly Cloudy
4:53 AM 34.0°F 33.1°F 96% 30.30 in 6.0 miles Calm Calm - N/A   Overcast
5:53 AM 35.1°F 34.0°F 96% 30.30 in 7.0 miles Calm Calm - N/A   Overcast
6:29 AM 33.8°F 33.8°F 100% 30.30 in 6.0 miles Calm Calm - N/A   Overcast
6:53 AM 34.0°F 34.0°F 100% 30.30 in 6.0 miles Calm Calm - N/A   Overcast
7:24 AM 33.8°F 32.0°F 93% 30.30 in 1.8 miles Calm Calm - N/A   Clear
7:41 AM 32.0°F 32.0°F 100% 30.30 in 2.5 miles Calm Calm - N/A   Clear
7:53 AM 32.0°F 32.0°F 100% 30.31 in 2.0 miles Calm Calm - N/A   Clear
8:05 AM 32.0°F 32.0°F 100% 30.31 in 4.0 miles Calm Calm - N/A   Clear
8:18 AM 33.8°F 32.0°F 93% 30.31 in 2.0 miles Calm Calm - N/A   Scattered Clouds
8:23 AM 33.8°F 33.8°F 100% 30.32 in 3.0 miles NE 3.5 mph - N/A   Mostly Cloudy
8:51 AM 33.8°F 33.8°F 100% 30.32 in 5.0 miles Calm Calm - N/A   Scattered Clouds
8:53 AM 34.0°F 34.0°F 100% 30.33 in 1.0 miles Calm Calm - N/A   Partly Cloudy
9:02 AM 35.6°F 35.6°F 100% 30.32 in 1.8 miles Calm Calm - N/A   Clear
9:09 AM 37.4°F 35.6°F 93% 30.32 in 5.0 miles Calm Calm - N/A   Clear
9:35 AM 37.4°F 35.6°F 93% 30.33 in 6.0 miles Calm Calm - N/A   Mostly Cloudy
9:53 AM 39.0°F 37.0°F 93% 30.33 in 6.0 miles Calm Calm - N/A   Overcast
10:53 AM 44.1°F 39.9°F 85% 30.34 in 6.0 miles NW 3.5 mph - N/A   Mostly Cloudy
11:06 AM 44.6°F 41.0°F 87% 30.33 in 6.0 miles NNE 4.6 mph - N/A   Scattered Clouds
11:53 AM 46.0°F 41.0°F 83% 30.32 in 6.0 miles Calm Calm - N/A   Haze
12:19 PM 46.4°F 41.0°F 81% 30.31 in 6.0 miles North 4.6 mph - N/A   Haze
12:41 PM 48.2°F 41.0°F 76% 30.31 in 6.0 miles Calm Calm - N/A   Haze
12:53 PM 48.0°F 39.9°F 74% 30.31 in 6.0 miles North 3.5 mph - N/A   Haze
1:53 PM 46.0°F 39.9°F 79% 30.31 in 6.0 miles Calm Calm - N/A   Haze
2:22 PM 48.2°F 37.4°F 66% 30.30 in 6.0 miles Calm Calm - N/A   Haze
2:53 PM 46.9°F 39.9°F 77% 30.30 in 6.0 miles North 3.5 mph - N/A   Haze
3:02 PM 46.4°F 39.2°F 76% 30.29 in 5.0 miles Calm Calm - N/A   Haze
3:53 PM 43.0°F 39.0°F 86% 30.29 in 5.0 miles NE 3.5 mph - N/A   Clear
4:53 PM 39.9°F 37.0°F 89% 30.27 in 6.0 miles North 6.9 mph - N/A   Clear
5:53 PM 39.9°F 36.0°F 86% 30.26 in 7.0 miles NE 6.9 mph - N/A   Clear
6:53 PM 37.9°F 35.1°F 89% 30.25 in 7.0 miles NNE 5.8 mph - N/A   Clear
7:53 PM 36.0°F 34.0°F 93% 30.24 in 7.0 miles NNE 3.5 mph - N/A   Clear
8:53 PM 33.1°F 33.1°F 100% 30.22 in 5.0 miles ENE 3.5 mph - N/A   Clear
9:53 PM 34.0°F 33.1°F 96% 30.21 in 6.0 miles ENE 3.5 mph - N/A   Clear
10:34 PM 32.0°F 32.0°F 100% 30.20 in 1.8 miles Calm Calm - N/A   Clear
10:42 PM 33.8°F 32.0°F 93% 30.20 in 4.0 miles East 4.6 mph - N/A   Clear
10:53 PM 33.1°F 32.0°F 96% 30.21 in 6.0 miles East 4.6 mph - N/A   Clear
11:53 PM 33.1°F 32.0°F 96% 30.20 in 6.0 miles Calm Calm - N/A   Clear
Moon Phase
Nov. 25 Nov. 28 Dec. 06 Dec. 13 Dec. 20
Sunrise:07:39 AM (PST) Moon Rise:02:58 PM (PST)11/25
Sunset:04:30 PM (PST) Moon Set:04:50 AM (PST)11/25

Copyright © 2014 The Weather Underground, Inc.